Regional Weather Roundup
Issued by NWS Sterling, VA

Home | Current Version | Previous Version | Text Only | Print | Product List | Glossary Off
Versions: 1 2 3 4 5 6 7 8 9 10 11 12 13 14 15 16 17 18 19 20 21 22 23 24 25 26 27 28 29 30 31 32 33 34 35 36 37 38 39 40 41 42 43 44 45 46 47 48 49 50

000
ASUS41 KLWX 292210
RWRLWX

REGIONAL WEATHER ROUNDUP
NATIONAL WEATHER SERVICE BALTIMORE MD/WASHINGTON DC
600 PM EDT TUE JUL 29 2014

Note: "FAIR" indicates few or no clouds below 12,000 feet
with no significant weather and/or obstructions to visibility.
 TC=TEMPERATURE CELSIUS

 * =Non NWS site. Station does not report precipitation (e.g. rain,
    snow, etc.), thunder, or fog.

DCZ001-MDZ009-015-VAZ040>042-051-053>054-292300-
WASHINGTON METRO
  /KDAA//-FT BELVOIR

CITY           SKY/WX    TMP DP  RH WIND       PRES   REMARKS
WASHINGTON NAT MOSUNNY   77  48  35 NW9       29.97R
DULLES         MOSUNNY   73  43  33 NW18      29.98R
ANDREWS AFB    SUNNY     74  47  38 NW16      29.96R
QUANTICO       SUNNY     76  49  38 N8        29.98R
COLLEGE PARK*  SUNNY     75  48  38 NW8       29.96R
LEESBURG*      SUNNY     72  52  49 N10G17    29.99R
GAITHERSBURG*  MOSUNNY   70  50  49 NW7       30.01R

$$

MDZ006>007-011-014-292300-
BALTIMORE METRO

CITY           SKY/WX    TMP DP  RH WIND       PRES   REMARKS
BWI AIRPORT    PTSUNNY   74  51  44 W12       29.95R
MD SCIENCE CTR   N/A     74  51  44 MISG      29.95R
MARTIN STATE   PTSUNNY   72  61  68 CALM      29.97R
ANNAPOLIS      SUNNY     74  50  42 W6        29.95R
FORT MEADE*    PTSUNNY   72  52  49 W7        29.98R

$$

MDZ012-015-019>023-292300-
MARYLAND EASTERN SHORE

CITY           SKY/WX    TMP DP  RH WIND       PRES   REMARKS
OCEAN CITY     MOSUNNY   74  61  63 SE3       29.94R
SALISBURY      NOT AVBL
BAY BRIDGE AP*   N/A     73  46  38 W7        29.95R
CAMBRIDGE*     SUNNY     77  50  38 W9        29.95R
EASTON*        MOSUNNY   75  54  46 NW7       29.99R

$$

MDZ017>025-292300-
SOUTHERN MARYLAND

CITY           SKY/WX    TMP DP  RH WIND       PRES   REMARKS
PATUXENT RIVER MOSUNNY   76  50  40 NW15      29.95R
ST INIGOES     SUNNY     75  52  44 NW7       29.95R
LEONARDTOWN*   SUNNY     73  50  43 W7        29.97R

$$

MDZ003>005-292300-
NORTH CENTRAL MARYLAND

CITY           SKY/WX    TMP DP  RH WIND       PRES   REMARKS
FREDERICK*     MOSUNNY   72  54  53 NW10      30.00R
HAGERSTOWN APT CLOUDY    70  47  43 NW10      29.99R
WESTMINSTER*   MOSUNNY   70  55  60 NW5       29.98R

$$

MDZ501>502-292300-
WESTERN MARYLAND

CITY           SKY/WX    TMP DP  RH WIND       PRES   REMARKS
OAKLAND*       CLOUDY    55  50  82 NW3       30.06S
CUMBERLAND*    PTSUNNY   70  46  43 NW6       30.05R

$$

VAZ025>031-292300-
SHENANDOAH VALLEY

CITY           SKY/WX    TMP DP  RH WIND       PRES   REMARKS
WINCHESTER*    MOSUNNY   70  45  40 NW10G18   30.00R
STAUNTON*      CLOUDY    73  50  44 N5        30.00R

$$

WVZ021-048>050-054>055-292300-
EASTERN WEST VIRGINIA PANHANDLE

CITY           SKY/WX    TMP DP  RH WIND       PRES   REMARKS
MARTINSBURG    PTSUNNY   71  45  39 NW10      30.00R
PETERSBURG*    PTSUNNY   69  43  39 NW9       30.02R

$$

VAZ036>039-050-292300-
CENTRAL FOOTHILLS

CITY           SKY/WX    TMP DP  RH WIND       PRES   REMARKS
CHARLOTTESVILL CLOUDY    75  55  49 NW3       29.96R
ORANGE*        PTSUNNY   73  54  49 NW6       29.98R

$$

VAZ055>057-292300-
NORTH AND CENTRAL PIEDMONT

CITY           SKY/WX    TMP DP  RH WIND       PRES   REMARKS
FREDERICKSBRG* SUNNY     77  53  42 N7        29.95R
STAFFORD*      MOSUNNY   75  52  44 N8        30.01R

$$

NCZ024-NYZ072-PAZ021-071-VAZ022-071-292300-
OTHER REGIONAL OBSERVATIONS

CITY           SKY/WX    TMP DP  RH WIND       PRES   REMARKS
NEW YORK CITY  MOSUNNY   74  49  41 VRB5      29.94R
PHILADELPHIA   CLOUDY    74  53  48 NW5       29.94R
PITTSBURGH     PTSUNNY   67  51  56 N6        30.02R
ROANOKE        PTSUNNY   77  50  38 NW12      29.98R
RICHMOND       PTSUNNY   78  53  41 N9        29.95R
RALEIGH        MOSUNNY   81  55  40 SE5       29.94S

$$

ANZ530>537-292300-
MARINE OBSERVATIONS

STATION/POSITION TIME  TEMP    WIND        PRES
                       AIR SEA DIR/SP/G
                 (UTC) (F)     (DEG/KT/KT) (MB)
THOMAS PT LIGHT  2200   73 78  290/ 12/ 15 1014.6R
BALT KEY BRIDGE  2200   73     280/  8/ 10 1013.8R
COVE POINT       2200   73     330/  8/ 13 1014.1R
LEWISETTA        2200   75 78  320/  8/ 11 1014.0R
SOLOMONS ISLAND  2200      80                N/A
PINEY POINT      2200          340/ 11/ 13   N/A

$$



USA.gov is the U.S. government's official web portal to all federal, state and local government web resources and services.